TimeCDT,TemperatureF,Dew PointF,Humidity,Sea Level PressureIn,VisibilityMPH,Wind Direction,Wind SpeedMPH,Gust SpeedMPH,PrecipitationIn,Events,Conditions,WindDirDegrees,DateUTC
12:54 AM,44.1,23.0,43,30.09,10.0,SE,5.8,-,N/A,,Clear,140,2011-10-30 05:54:00
1:54 AM,44.1,23.0,43,30.10,10.0,Variable,5.8,-,N/A,,Clear,0,2011-10-30 06:54:00
2:54 AM,43.0,24.1,47,30.09,10.0,SSE,6.9,-,N/A,,Clear,150,2011-10-30 07:54:00
3:54 AM,44.1,24.1,45,30.07,10.0,SSE,11.5,19.6,N/A,,Clear,150,2011-10-30 08:54:00
4:54 AM,44.1,25.0,47,30.06,10.0,SSE,9.2,-,N/A,,Clear,160,2011-10-30 09:54:00
5:54 AM,45.0,26.1,48,30.06,10.0,South,12.7,-,N/A,,Clear,170,2011-10-30 10:54:00
6:54 AM,43.0,27.0,53,30.05,10.0,South,12.7,-,N/A,,Clear,180,2011-10-30 11:54:00
7:54 AM,44.1,28.9,55,30.05,10.0,South,12.7,-,N/A,,Clear,180,2011-10-30 12:54:00
8:54 AM,45.0,30.9,58,30.06,10.0,South,11.5,-,N/A,,Clear,180,2011-10-30 13:54:00
9:54 AM,48.9,33.1,54,30.03,10.0,South,17.3,-,N/A,,Overcast,190,2011-10-30 14:54:00
10:54 AM,50.0,34.0,54,30.04,10.0,SSW,16.1,-,0.00,Rain,Light Rain,210,2011-10-30 15:54:00
11:54 AM,48.9,39.9,71,30.01,10.0,SSW,11.5,-,0.01,Rain,Light Rain,210,2011-10-30 16:54:00
12:54 PM,50.0,39.9,68,29.99,10.0,SW,11.5,-,0.01,Rain,Light Rain,220,2011-10-30 17:54:00
1:54 PM,51.8,39.2,62,29.94,9.0,SSW,13.8,-,N/A,,Overcast,200,2011-10-30 18:54:00
2:54 PM,51.1,39.9,66,29.96,10.0,SSW,10.4,-,0.00,,Overcast,210,2011-10-30 19:54:00
3:54 PM,52.0,41.0,66,29.95,10.0,South,13.8,-,N/A,,Overcast,190,2011-10-30 20:54:00
4:54 PM,52.0,41.0,66,29.96,10.0,South,10.4,-,N/A,,Overcast,190,2011-10-30 21:54:00
5:54 PM,48.2,42.8,82,29.95,10.0,South,6.9,-,N/A,,Overcast,180,2011-10-30 22:54:00
6:54 PM,48.0,42.1,80,29.98,10.0,Calm,Calm,-,0.00,,Mostly Cloudy,0,2011-10-30 23:54:00
7:54 PM,46.9,41.0,80,29.98,10.0,SSW,6.9,-,0.00,,Mostly Cloudy,210,2011-10-31 00:54:00
8:54 PM,46.0,42.1,86,30.00,10.0,Calm,Calm,-,0.01,,Partly Cloudy,0,2011-10-31 01:54:00
9:54 PM,43.0,41.0,93,30.01,10.0,South,5.8,-,N/A,,Scattered Clouds,190,2011-10-31 02:54:00
10:54 PM,42.1,41.0,96,30.01,9.0,Calm,Calm,-,N/A,,Partly Cloudy,0,2011-10-31 03:54:00
11:54 PM,39.0,37.9,96,30.00,5.0,Calm,Calm,-,N/A,,Clear,0,2011-10-31 04:54:00